Location: Unspecified
(0.0000°N, 0.0000°E)
Time: 17:18:00
(UTC+00:00)

ISS - Pass Details

Date: 18 March 2018
Orbit: 403 x 408 km, 51.6° (Epoch: 21 September)

Event Time Altitude Azimuth Distance (km) Brightness Sun altitude
Rises 19:00:10 0° 205° (SSW) 2,354 0.4 -13.0°
Reaches altitude 10° 19:02:20 10° 198° (SSW) 1,492 -0.7 -13.6°
Maximum altitude 19:05:31 42° 126° (SE) 609 -3.3 -14.4°
Enters shadow 19:06:41 30° 77° (ENE) 783 -3.0 -14.7°
